GEFSSGP_prec_meanprecacc_048.txt.gz
Total_Precipitation_Accumulation
0.00 0.00 0.00 0.03 0.14 0.22 0.29 0.14 0.04 0.02 0.02 0.01 0.01 0.02 0.05 0.06 0.09 0.08 0.01 0.00 0.00 0.00 0.00 0.01 0.00 0.00 0.00 0.01 0.02 0.05 0.06 0.08 0.08 0.08 0.08 0.07 0.05 0.02 0.01 0.00 0.00 0.00 0.01 0.01 0.01 0.01 0.01 0.01 0.01
0.00 0.00 0.00 0.02 0.10 0.25 0.30 0.15 0.04 0.02 0.02 0.02 0.02 0.01 0.01 0.01 0.01 0.00 0.00 0.00 0.00 0.00 0.00 0.00 0.01 0.00 0.00 0.01 0.02 0.03 0.04 0.05 0.06 0.06 0.06 0.05 0.03 0.01 0.01 0.01 0.01 0.01 0.02 0.02 0.02 0.02 0.02 0.01 0.00
0.00 0.00 0.00 0.01 0.03 0.11 0.14 0.06 0.02 0.02 0.04 0.04 0.04 0.02 0.00 0.00 0.00 0.00 0.00 0.00 0.00 0.00 0.00 0.01 0.01 0.01 0.01 0.01 0.02 0.03 0.04 0.04 0.05 0.05 0.04 0.04 0.02 0.01 0.01 0.01 0.01 0.02 0.04 0.04 0.04 0.04 0.03 0.02 0.01
0.00 0.00 0.00 0.00 0.00 0.01 0.02 0.03 0.04 0.05 0.05 0.05 0.05 0.02 0.00 0.00 0.00 0.00 0.00 0.00 0.00 0.00 0.00 0.01 0.01 0.01 0.01 0.02 0.02 0.02 0.04 0.04 0.05 0.04 0.04 0.04 0.03 0.03 0.02 0.02 0.02 0.04 0.07 0.08 0.08 0.08 0.06 0.03 0.01
0.00 0.00 0.00 0.00 0.00 0.01 0.01 0.04 0.08 0.10 0.08 0.06 0.06 0.04 0.01 0.00 0.00 0.00 0.00 0.00 0.00 0.00 0.00 0.01 0.02 0.02 0.02 0.03 0.04 0.04 0.05 0.05 0.05 0.05 0.05 0.05 0.04 0.04 0.04 0.04 0.04 0.05 0.07 0.08 0.09 0.10 0.08 0.05 0.02
0.00 0.00 0.00 0.00 0.01 0.02 0.03 0.07 0.13 0.13 0.10 0.07 0.14 0.10 0.03 0.01 0.01 0.02 0.01 0.01 0.01 0.00 0.01 0.02 0.03 0.04 0.03 0.04 0.05 0.06 0.06 0.07 0.08 0.08 0.07 0.06 0.06 0.07 0.07 0.07 0.06 0.06 0.07 0.08 0.09 0.10 0.10 0.08 0.05
0.00 0.00 0.00 0.00 0.01 0.03 0.05 0.09 0.14 0.14 0.09 0.12 0.22 0.20 0.10 0.04 0.02 0.03 0.04 0.02 0.01 0.01 0.02 0.04 0.06 0.06 0.06 0.07 0.08 0.08 0.09 0.09 0.10 0.10 0.08 0.07 0.07 0.08 0.09 0.10 0.09 0.09 0.10 0.10 0.10 0.11 0.13 0.13 0.10
0.00 0.00 0.00 0.00 0.01 0.04 0.07 0.09 0.13 0.20 0.22 0.21 0.15 0.23 0.28 0.11 0.05 0.06 0.06 0.04 0.04 0.03 0.03 0.04 0.09 0.12 0.12 0.11 0.11 0.11 0.12 0.12 0.12 0.11 0.10 0.09 0.09 0.11 0.14 0.13 0.12 0.12 0.13 0.16 0.19 0.19 0.21 0.22 0.20
0.00 0.00 0.00 0.00 0.01 0.09 0.11 0.10 0.12 0.13 0.13 0.12 0.13 0.22 0.18 0.08 0.08 0.10 0.10 0.08 0.07 0.06 0.06 0.07 0.10 0.13 0.15 0.17 0.19 0.23 0.24 0.27 0.27 0.28 0.25 0.20 0.20 0.27 0.35 0.28 0.23 0.23 0.29 0.35 0.42 0.44 0.48 0.47 0.36
0.00 0.00 0.00 0.00 0.00 0.04 0.10 0.12 0.15 0.13 0.18 0.22 0.17 0.11 0.07 0.09 0.13 0.13 0.13 0.13 0.12 0.12 0.13 0.14 0.16 0.20 0.22 0.25 0.44 0.54 0.55 0.67 0.60 0.66 0.61 0.57 0.56 0.46 0.34 0.38 0.44 0.53 0.67 0.76 0.84 0.97 1.02 0.92 0.68
0.00 0.00 0.00 0.00 0.00 0.00 0.02 0.07 0.13 0.17 0.33 0.47 0.39 0.16 0.18 0.18 0.24 0.21 0.21 0.21 0.23 0.25 0.22 0.21 0.26 0.28 0.32 0.41 0.62 0.74 0.79 0.87 0.86 0.91 0.98 1.06 1.05 0.86 0.72 0.83 1.01 1.09 1.21 1.22 1.38 1.57 1.31 1.22 1.20
0.00 0.00 0.00 0.00 0.00 0.00 0.01 0.04 0.12 0.11 0.39 0.55 0.37 0.20 0.22 0.22 0.25 0.32 0.33 0.31 0.31 0.36 0.40 0.46 0.51 0.52 0.55 0.67 0.72 0.77 0.73 0.78 0.87 0.99 1.15 1.30 1.27 1.27 1.21 1.23 1.30 1.40 1.51 1.61 1.72 1.74 1.65 1.75 1.71
0.00 0.00 0.00 0.01 0.01 0.01 0.02 0.05 0.10 0.12 0.24 0.35 0.20 0.15 0.19 0.25 0.30 0.37 0.39 0.38 0.48 0.68 0.77 0.79 0.80 0.77 0.70 0.64 0.62 0.61 0.61 0.63 0.74 0.84 0.92 1.04 1.25 1.38 1.37 1.22 1.19 1.22 1.41 1.65 1.89 1.93 2.13 2.18 1.93
0.00 0.00 0.00 0.01 0.00 0.01 0.02 0.04 0.07 0.11 0.17 0.27 0.23 0.18 0.22 0.28 0.36 0.46 0.56 0.73 0.96 1.15 1.18 1.16 1.07 0.91 0.84 0.76 0.66 0.64 0.60 0.64 0.66 0.68 0.78 0.95 1.08 1.23 1.20 1.19 1.23 1.24 1.23 1.34 1.69 1.89 2.06 1.98 1.73
0.00 0.02 0.03 0.02 0.01 0.01 0.02 0.07 0.17 0.14 0.20 0.26 0.25 0.24 0.28 0.36 0.48 0.72 0.99 1.33 1.73 1.96 1.71 1.35 1.15 0.99 0.89 0.88 0.84 0.76 0.68 0.63 0.64 0.62 0.69 0.78 0.85 0.96 1.00 0.99 0.98 1.02 1.03 1.05 1.18 1.34 1.48 1.40 1.27
0.01 0.05 0.13 0.06 0.02 0.02 0.04 0.30 0.46 0.25 0.25 0.29 0.27 0.32 0.40 0.54 0.69 0.98 1.38 1.96 2.48 2.67 2.28 1.68 1.43 1.43 1.30 1.16 0.90 0.70 0.63 0.56 0.50 0.48 0.49 0.53 0.55 0.58 0.60 0.60 0.58 0.61 0.60 0.64 0.73 0.82 0.90 0.96 1.02
0.01 0.04 0.10 0.12 0.06 0.04 0.10 0.46 0.61 0.35 0.36 0.34 0.33 0.42 0.51 0.58 0.67 0.82 1.25 1.84 2.54 3.03 2.87 2.28 2.10 2.12 1.60 0.99 0.68 0.53 0.47 0.38 0.35 0.37 0.35 0.37 0.39 0.40 0.43 0.42 0.41 0.40 0.38 0.38 0.40 0.49 0.59 0.66 0.74
0.01 0.02 0.07 0.16 0.11 0.10 0.17 0.35 0.58 0.57 0.60 0.62 0.54 0.50 0.54 0.56 0.58 0.62 0.77 1.00 1.71 2.15 2.06 1.91 1.90 1.54 1.02 0.60 0.41 0.30 0.27 0.23 0.21 0.25 0.27 0.28 0.31 0.33 0.36 0.34 0.33 0.29 0.27 0.29 0.33 0.38 0.41 0.42 0.46
0.01 0.02 0.06 0.11 0.12 0.17 0.25 0.34 0.53 0.64 0.70 0.70 0.62 0.51 0.39 0.42 0.45 0.46 0.46 0.46 0.71 0.86 0.87 0.98 0.93 0.83 0.52 0.36 0.23 0.16 0.14 0.13 0.13 0.16 0.16 0.19 0.23 0.28 0.34 0.29 0.32 0.29 0.24 0.24 0.26 0.29 0.30 0.28 0.29
0.01 0.03 0.08 0.12 0.11 0.14 0.24 0.40 0.57 0.67 0.62 0.57 0.54 0.43 0.32 0.33 0.35 0.26 0.19 0.29 0.32 0.39 0.45 0.47 0.49 0.41 0.25 0.17 0.15 0.13 0.11 0.08 0.07 0.07 0.09 0.09 0.12 0.17 0.23 0.30 0.25 0.25 0.25 0.25 0.24 0.26 0.25 0.22 0.24
0.03 0.04 0.05 0.09 0.08 0.11 0.26 0.63 0.67 0.60 0.54 0.46 0.45 0.35 0.24 0.20 0.16 0.08 0.05 0.09 0.26 0.45 0.40 0.25 0.25 0.20 0.13 0.10 0.10 0.10 0.10 0.10 0.09 0.08 0.07 0.08 0.07 0.09 0.14 0.21 0.24 0.27 0.24 0.27 0.32 0.30 0.27 0.21 0.19
0.03 0.03 0.01 0.01 0.04 0.23 0.33 0.68 0.74 0.59 0.61 0.47 0.37 0.31 0.14 0.07 0.04 0.03 0.03 0.05 0.14 0.26 0.26 0.21 0.20 0.20 0.12 0.09 0.08 0.07 0.07 0.08 0.08 0.07 0.06 0.07 0.06 0.07 0.08 0.10 0.15 0.22 0.26 0.33 0.26 0.29 0.30 0.25 0.18
0.01 0.01 0.01 0.02 0.05 0.13 0.23 0.56 0.76 0.57 0.64 0.43 0.25 0.15 0.06 0.03 0.01 0.00 0.01 0.01 0.02 0.05 0.11 0.15 0.24 0.28 0.20 0.14 0.10 0.09 0.07 0.06 0.06 0.07 0.07 0.08 0.10 0.11 0.12 0.12 0.11 0.12 0.19 0.26 0.29 0.35 0.32 0.32 0.27
0.00 0.01 0.06 0.12 0.15 0.31 0.32 0.36 0.61 0.46 0.34 0.19 0.11 0.06 0.03 0.02 0.01 0.01 0.00 0.00 0.01 0.04 0.06 0.09 0.18 0.25 0.20 0.16 0.14 0.15 0.15 0.13 0.12 0.11 0.11 0.14 0.17 0.19 0.19 0.20 0.20 0.19 0.17 0.17 0.19 0.24 0.30 0.35 0.36
0.01 0.02 0.13 0.26 0.37 0.45 0.21 0.38 0.69 0.34 0.18 0.09 0.05 0.03 0.02 0.01 0.01 0.01 0.01 0.01 0.01 0.03 0.03 0.04 0.07 0.12 0.12 0.10 0.10 0.15 0.23 0.29 0.30 0.25 0.22 0.20 0.21 0.23 0.23 0.22 0.24 0.27 0.27 0.25 0.20 0.16 0.20 0.28 0.33
0.01 0.01 0.02 0.04 0.08 0.15 0.20 0.74 0.61 0.17 0.09 0.05 0.02 0.01 0.01 0.01 0.01 0.01 0.01 0.01 0.01 0.01 0.01 0.01 0.01 0.02 0.03 0.04 0.05 0.07 0.11 0.18 0.26 0.31 0.30 0.30 0.32 0.27 0.23 0.21 0.22 0.26 0.30 0.31 0.28 0.22 0.20 0.22 0.26
0.01 0.00 0.00 0.01 0.01 0.08 0.22 0.39 0.21 0.05 0.03 0.02 0.01 0.01 0.01 0.00 0.00 0.00 0.00 0.00 0.00 0.00 0.00 0.00 0.00 0.00 0.00 0.00 0.01 0.01 0.02 0.04 0.06 0.10 0.14 0.21 0.31 0.30 0.24 0.20 0.19 0.22 0.25 0.30 0.31 0.30 0.29 0.26 0.24
0.01 0.00 0.00 0.00 0.01 0.04 0.14 0.28 0.29 0.08 0.03 0.02 0.01 0.01 0.00 0.00 0.00 0.00 0.00 0.00 0.00 0.00 0.00 0.00 0.00 0.00 0.00 0.00 0.00 0.00 0.01 0.01 0.02 0.03 0.04 0.06 0.11 0.15 0.15 0.15 0.15 0.17 0.19 0.23 0.28 0.34 0.39 0.41 0.38
0.00 0.00 0.00 0.00 0.01 0.01 0.06 0.13 0.11 0.06 0.03 0.02 0.01 0.00 0.00 0.00 0.00 0.00 0.00 0.00 0.00 0.00 0.00 0.00 0.00 0.00 0.00 0.00 0.00 0.00 0.00 0.00 0.00 0.01 0.01 0.02 0.02 0.03 0.04 0.06 0.08 0.10 0.12 0.15 0.20 0.27 0.38 0.51 0.59
0.00 0.01 0.01 0.01 0.01 0.01 0.01 0.03 0.02 0.01 0.01 0.00 0.00 0.00 0.00 0.00 0.00 0.00 0.00 0.00 0.00 0.00 0.00 0.00 0.00 0.00 0.00 0.00 0.00 0.00 0.00 0.00 0.00 0.00 0.00 0.00 0.01 0.01 0.01 0.02 0.02 0.03 0.04 0.07 0.11 0.17 0.24 0.36 0.53

GEFSSGP_prec_meanprecacc_054.txt.gz
Total_Precipitation_Accumulation
0.00 0.00 0.00 0.04 0.18 0.31 0.43 0.36 0.26 0.12 0.12 0.10 0.07 0.07 0.11 0.11 0.12 0.09 0.02 0.00 0.00 0.00 0.00 0.01 0.01 0.01 0.01 0.01 0.03 0.06 0.08 0.09 0.10 0.10 0.10 0.10 0.06 0.04 0.02 0.01 0.01 0.01 0.01 0.01 0.01 0.01 0.01 0.01 0.01
0.00 0.00 0.00 0.03 0.14 0.34 0.44 0.36 0.24 0.12 0.12 0.15 0.15 0.08 0.03 0.02 0.01 0.01 0.01 0.00 0.00 0.00 0.00 0.00 0.01 0.00 0.01 0.01 0.02 0.04 0.06 0.07 0.07 0.07 0.07 0.07 0.05 0.02 0.01 0.01 0.01 0.01 0.02 0.02 0.02 0.02 0.02 0.01 0.00
0.00 0.00 0.01 0.02 0.08 0.18 0.22 0.14 0.13 0.16 0.19 0.23 0.21 0.13 0.03 0.02 0.02 0.01 0.00 0.00 0.00 0.00 0.00 0.01 0.01 0.01 0.01 0.01 0.02 0.03 0.04 0.05 0.05 0.05 0.05 0.05 0.04 0.02 0.02 0.02 0.02 0.03 0.04 0.04 0.04 0.04 0.03 0.02 0.01
0.00 0.00 0.01 0.01 0.02 0.04 0.05 0.08 0.14 0.22 0.30 0.40 0.35 0.18 0.06 0.03 0.02 0.01 0.00 0.00 0.00 0.00 0.00 0.01 0.01 0.01 0.01 0.02 0.02 0.03 0.04 0.05 0.05 0.05 0.05 0.04 0.04 0.04 0.03 0.03 0.03 0.05 0.08 0.08 0.09 0.08 0.06 0.03 0.01
0.00 0.00 0.01 0.01 0.01 0.02 0.04 0.10 0.20 0.29 0.35 0.44 0.41 0.23 0.12 0.06 0.04 0.02 0.01 0.01 0.00 0.00 0.00 0.01 0.02 0.02 0.02 0.03 0.04 0.04 0.05 0.05 0.06 0.05 0.05 0.05 0.05 0.05 0.05 0.04 0.04 0.05 0.08 0.09 0.10 0.11 0.09 0.05 0.02
0.00 0.00 0.00 0.00 0.01 0.02 0.06 0.12 0.22 0.31 0.39 0.48 0.63 0.42 0.19 0.10 0.08 0.05 0.03 0.02 0.01 0.01 0.01 0.02 0.03 0.04 0.03 0.04 0.05 0.06 0.06 0.07 0.08 0.08 0.08 0.07 0.06 0.07 0.08 0.07 0.07 0.07 0.08 0.09 0.10 0.11 0.11 0.09 0.05
0.00 0.00 0.00 0.00 0.01 0.03 0.06 0.11 0.21 0.32 0.38 0.57 0.83 0.65 0.30 0.16 0.14 0.10 0.08 0.04 0.03 0.02 0.02 0.04 0.06 0.06 0.06 0.07 0.08 0.08 0.09 0.10 0.10 0.11 0.09 0.08 0.07 0.09 0.10 0.11 0.11 0.10 0.11 0.11 0.12 0.13 0.14 0.13 0.10
0.00 0.00 0.00 0.00 0.01 0.04 0.09 0.13 0.24 0.41 0.52 0.68 0.84 0.75 0.59 0.33 0.21 0.17 0.13 0.08 0.06 0.04 0.03 0.05 0.09 0.12 0.12 0.12 0.11 0.12 0.12 0.13 0.12 0.12 0.11 0.10 0.10 0.13 0.18 0.17 0.16 0.16 0.17 0.19 0.22 0.22 0.24 0.24 0.21
0.00 0.00 0.00 0.00 0.01 0.09 0.13 0.16 0.21 0.27 0.41 0.59 0.75 0.69 0.53 0.33 0.30 0.31 0.26 0.16 0.11 0.07 0.07 0.08 0.11 0.13 0.16 0.18 0.19 0.23 0.25 0.28 0.28 0.30 0.29 0.24 0.23 0.30 0.40 0.35 0.33 0.34 0.37 0.41 0.48 0.49 0.53 0.51 0.39
0.00 0.00 0.00 0.00 0.00 0.05 0.10 0.15 0.21 0.25 0.56 1.00 1.01 0.65 0.37 0.39 0.40 0.36 0.37 0.31 0.22 0.16 0.16 0.16 0.18 0.22 0.25 0.27 0.46 0.56 0.58 0.70 0.62 0.69 0.66 0.62 0.59 0.48 0.36 0.42 0.53 0.63 0.78 0.85 0.92 1.04 1.07 0.96 0.71
0.00 0.00 0.00 0.00 0.01 0.01 0.04 0.09 0.16 0.32 0.69 1.16 1.29 0.89 0.63 0.55 0.55 0.44 0.43 0.45 0.37 0.32 0.27 0.25 0.29 0.32 0.36 0.44 0.66 0.79 0.83 0.91 0.89 0.95 1.02 1.09 1.07 0.88 0.75 0.85 1.05 1.14 1.28 1.27 1.43 1.63 1.36 1.26 1.23
0.00 0.00 0.00 0.00 0.01 0.01 0.08 0.14 0.21 0.26 0.59 0.88 0.76 0.57 0.55 0.53 0.55 0.53 0.50 0.57 0.47 0.43 0.46 0.51 0.56 0.56 0.58 0.70 0.75 0.80 0.76 0.82 0.89 1.02 1.18 1.32 1.29 1.29 1.25 1.26 1.33 1.42 1.54 1.65 1.75 1.77 1.70 1.79 1.75
0.00 0.00 0.00 0.01 0.02 0.03 0.08 0.11 0.20 0.30 0.38 0.48 0.39 0.41 0.58 0.57 0.55 0.57 0.53 0.53 0.62 0.76 0.84 0.86 0.85 0.80 0.73 0.66 0.65 0.64 0.64 0.65 0.76 0.86 0.94 1.05 1.26 1.40 1.40 1.24 1.21 1.23 1.43 1.68 1.93 1.96 2.15 2.20 1.95
0.00 0.00 0.00 0.01 0.02 0.03 0.05 0.08 0.16 0.32 0.37 0.47 0.51 0.46 0.57 0.71 0.68 0.65 0.72 0.87 1.16 1.26 1.27 1.23 1.10 0.93 0.86 0.78 0.68 0.66 0.62 0.65 0.69 0.71 0.79 0.96 1.09 1.25 1.21 1.20 1.24 1.26 1.25 1.36 1.71 1.91 2.08 1.99 1.74
0.00 0.02 0.03 0.03 0.02 0.03 0.04 0.12 0.29 0.43 0.60 0.58 0.62 0.58 0.64 0.89 0.91 0.98 1.18 1.47 1.83 2.05 1.79 1.42 1.18 1.00 0.90 0.89 0.84 0.77 0.69 0.64 0.66 0.63 0.69 0.79 0.86 0.97 1.01 1.00 0.99 1.04 1.05 1.07 1.19 1.35 1.49 1.41 1.28
0.01 0.06 0.14 0.07 0.03 0.05 0.08 0.36 0.56 0.45 0.72 0.97 0.78 0.83 1.04 1.22 1.19 1.29 1.54 2.06 2.54 2.71 2.32 1.71 1.46 1.44 1.31 1.17 0.90 0.71 0.64 0.57 0.50 0.48 0.49 0.53 0.55 0.58 0.61 0.60 0.58 0.62 0.61 0.65 0.73 0.82 0.91 0.96 1.03
0.02 0.05 0.13 0.15 0.08 0.07 0.15 0.52 0.68 0.47 0.57 0.82 0.92 0.98 1.20 1.30 1.15 1.16 1.43 1.96 2.60 3.06 2.90 2.30 2.11 2.13 1.61 1.00 0.68 0.54 0.47 0.39 0.35 0.37 0.35 0.37 0.39 0.40 0.43 0.42 0.41 0.40 0.38 0.39 0.40 0.49 0.59 0.67 0.74
0.02 0.03 0.08 0.19 0.14 0.14 0.21 0.40 0.65 0.66 0.77 0.92 0.94 0.94 1.04 1.00 0.89 0.89 0.97 1.12 1.76 2.18 2.08 1.93 1.91 1.55 1.03 0.60 0.42 0.31 0.27 0.23 0.21 0.25 0.27 0.28 0.31 0.33 0.36 0.34 0.33 0.29 0.27 0.29 0.34 0.38 0.41 0.42 0.46
0.01 0.03 0.07 0.13 0.14 0.21 0.33 0.44 0.60 0.72 0.89 1.02 0.97 0.81 0.71 0.70 0.70 0.66 0.62 0.54 0.74 0.88 0.88 0.99 0.94 0.83 0.52 0.36 0.23 0.16 0.14 0.13 0.13 0.16 0.16 0.19 0.23 0.28 0.34 0.29 0.32 0.29 0.24 0.24 0.26 0.29 0.30 0.28 0.29
0.03 0.05 0.10 0.13 0.13 0.18 0.32 0.55 0.68 0.73 0.72 0.78 0.83 0.72 0.60 0.59 0.55 0.40 0.29 0.33 0.34 0.40 0.46 0.48 0.49 0.41 0.25 0.17 0.15 0.13 0.11 0.08 0.07 0.07 0.09 0.09 0.12 0.17 0.23 0.30 0.25 0.25 0.25 0.25 0.24 0.26 0.25 0.22 0.24
0.04 0.05 0.06 0.10 0.10 0.17 0.31 0.75 0.81 0.68 0.59 0.53 0.62 0.63 0.51 0.42 0.32 0.18 0.11 0.12 0.27 0.46 0.40 0.25 0.25 0.20 0.13 0.11 0.10 0.10 0.10 0.10 0.09 0.08 0.07 0.08 0.07 0.09 0.14 0.21 0.24 0.27 0.24 0.27 0.32 0.30 0.27 0.21 0.19
0.03 0.03 0.01 0.02 0.06 0.28 0.38 0.77 0.83 0.67 0.65 0.50 0.45 0.45 0.28 0.17 0.12 0.08 0.06 0.07 0.15 0.26 0.26 0.21 0.20 0.20 0.12 0.09 0.08 0.08 0.07 0.08 0.08 0.07 0.06 0.07 0.06 0.07 0.08 0.10 0.15 0.22 0.26 0.33 0.26 0.29 0.30 0.25 0.19
0.01 0.01 0.01 0.03 0.07 0.18 0.30 0.63 0.80 0.59 0.67 0.46 0.29 0.18 0.09 0.05 0.03 0.02 0.02 0.02 0.02 0.05 0.11 0.16 0.25 0.29 0.20 0.14 0.10 0.09 0.07 0.06 0.07 0.07 0.07 0.08 0.10 0.11 0.12 0.12 0.11 0.12 0.19 0.26 0.29 0.35 0.32 0.32 0.27
0.00 0.01 0.07 0.14 0.18 0.37 0.40 0.42 0.67 0.47 0.35 0.20 0.12 0.06 0.04 0.02 0.01 0.01 0.01 0.01 0.01 0.04 0.06 0.09 0.19 0.26 0.21 0.16 0.14 0.15 0.15 0.13 0.12 0.11 0.11 0.14 0.17 0.19 0.19 0.20 0.20 0.19 0.17 0.17 0.19 0.24 0.30 0.35 0.36
0.01 0.02 0.14 0.31 0.44 0.54 0.27 0.43 0.73 0.35 0.19 0.09 0.06 0.03 0.02 0.01 0.01 0.01 0.01 0.01 0.01 0.03 0.04 0.04 0.08 0.13 0.12 0.10 0.11 0.16 0.23 0.29 0.30 0.25 0.22 0.20 0.21 0.23 0.23 0.22 0.24 0.27 0.27 0.25 0.20 0.16 0.20 0.28 0.33
0.01 0.01 0.03 0.06 0.13 0.22 0.26 0.82 0.65 0.18 0.09 0.05 0.02 0.02 0.02 0.01 0.01 0.01 0.01 0.01 0.01 0.01 0.01 0.02 0.03 0.03 0.03 0.04 0.05 0.07 0.11 0.18 0.26 0.31 0.30 0.30 0.32 0.27 0.23 0.21 0.22 0.26 0.30 0.31 0.28 0.22 0.20 0.22 0.26
0.01 0.00 0.00 0.01 0.03 0.13 0.35 0.51 0.25 0.06 0.03 0.02 0.01 0.01 0.01 0.00 0.00 0.00 0.00 0.00 0.00 0.00 0.00 0.00 0.01 0.01 0.01 0.01 0.01 0.01 0.02 0.04 0.06 0.10 0.14 0.21 0.31 0.30 0.24 0.20 0.19 0.22 0.25 0.30 0.31 0.30 0.29 0.27 0.24
0.02 0.01 0.01 0.01 0.03 0.09 0.24 0.40 0.35 0.10 0.04 0.02 0.01 0.01 0.00 0.00 0.00 0.00 0.00 0.00 0.00 0.00 0.00 0.00 0.00 0.00 0.00 0.00 0.00 0.00 0.01 0.01 0.02 0.03 0.04 0.06 0.11 0.15 0.15 0.15 0.15 0.17 0.19 0.23 0.29 0.34 0.40 0.42 0.38
0.02 0.01 0.01 0.01 0.01 0.03 0.10 0.18 0.15 0.08 0.05 0.02 0.01 0.00 0.00 0.00 0.00 0.00 0.00 0.00 0.00 0.00 0.00 0.00 0.00 0.00 0.00 0.00 0.00 0.00 0.00 0.00 0.00 0.01 0.01 0.02 0.02 0.03 0.04 0.06 0.08 0.10 0.12 0.15 0.21 0.27 0.38 0.51 0.59
0.02 0.01 0.01 0.01 0.02 0.02 0.03 0.04 0.03 0.03 0.04 0.02 0.00 0.00 0.00 0.00 0.00 0.00 0.00 0.00 0.00 0.00 0.00 0.00 0.00 0.00 0.00 0.00 0.00 0.00 0.00 0.00 0.00 0.00 0.00 0.00 0.01 0.01 0.01 0.02 0.02 0.03 0.04 0.07 0.11 0.17 0.24 0.37 0.53

GEFSSGP_prec_meanprecacc_060.txt.gz
Total_Precipitation_Accumulation
0.00 0.00 0.00 0.04 0.19 0.32 0.44 0.38 0.29 0.16 0.22 0.22 0.23 0.23 0.26 0.26 0.23 0.14 0.03 0.01 0.00 0.00 0.01 0.05 0.07 0.05 0.03 0.03 0.05 0.08 0.09 0.11 0.10 0.10 0.11 0.10 0.07 0.04 0.02 0.01 0.01 0.01 0.01 0.01 0.01 0.01 0.01 0.01 0.01
0.00 0.00 0.00 0.03 0.15 0.35 0.44 0.38 0.27 0.20 0.23 0.28 0.41 0.40 0.27 0.18 0.13 0.05 0.02 0.00 0.00 0.00 0.01 0.01 0.05 0.05 0.03 0.03 0.04 0.06 0.07 0.07 0.08 0.08 0.07 0.07 0.05 0.03 0.02 0.02 0.01 0.02 0.02 0.02 0.02 0.02 0.02 0.01 0.01
0.00 0.00 0.01 0.02 0.08 0.18 0.23 0.16 0.16 0.22 0.31 0.40 0.45 0.42 0.28 0.18 0.11 0.06 0.02 0.01 0.01 0.01 0.01 0.02 0.04 0.04 0.04 0.04 0.03 0.04 0.05 0.06 0.06 0.06 0.06 0.05 0.04 0.03 0.02 0.02 0.02 0.03 0.04 0.04 0.04 0.04 0.03 0.02 0.01
0.00 0.00 0.01 0.02 0.02 0.04 0.06 0.10 0.16 0.27 0.46 0.69 0.67 0.43 0.22 0.15 0.11 0.07 0.03 0.01 0.01 0.01 0.01 0.03 0.04 0.04 0.04 0.03 0.03 0.03 0.05 0.06 0.06 0.06 0.06 0.05 0.04 0.04 0.03 0.03 0.03 0.05 0.08 0.08 0.09 0.08 0.06 0.03 0.01
0.00 0.01 0.01 0.01 0.02 0.02 0.04 0.11 0.21 0.34 0.49 0.67 0.68 0.44 0.24 0.18 0.14 0.09 0.03 0.02 0.01 0.01 0.02 0.03 0.05 0.05 0.04 0.04 0.05 0.05 0.05 0.06 0.07 0.07 0.07 0.07 0.06 0.06 0.05 0.05 0.05 0.06 0.08 0.09 0.10 0.11 0.09 0.05 0.02
0.00 0.00 0.00 0.01 0.01 0.02 0.06 0.13 0.23 0.34 0.48 0.60 0.80 0.61 0.34 0.25 0.23 0.17 0.07 0.03 0.02 0.02 0.02 0.04 0.06 0.06 0.05 0.05 0.06 0.07 0.06 0.08 0.09 0.09 0.09 0.08 0.08 0.08 0.10 0.09 0.08 0.08 0.09 0.10 0.11 0.12 0.12 0.09 0.05
0.00 0.00 0.00 0.00 0.01 0.04 0.06 0.12 0.23 0.36 0.47 0.69 0.92 0.76 0.41 0.26 0.26 0.23 0.14 0.06 0.05 0.04 0.04 0.06 0.08 0.08 0.08 0.08 0.09 0.10 0.10 0.11 0.11 0.12 0.11 0.09 0.09 0.11 0.13 0.15 0.14 0.13 0.13 0.13 0.15 0.16 0.16 0.15 0.12
0.00 0.00 0.00 0.00 0.01 0.04 0.10 0.14 0.27 0.45 0.56 0.73 0.89 0.80 0.66 0.40 0.30 0.29 0.22 0.13 0.10 0.07 0.05 0.06 0.10 0.13 0.13 0.13 0.14 0.14 0.14 0.14 0.14 0.15 0.15 0.14 0.14 0.16 0.22 0.23 0.22 0.23 0.24 0.25 0.27 0.27 0.30 0.29 0.25
0.00 0.00 0.00 0.00 0.01 0.09 0.13 0.17 0.23 0.32 0.45 0.63 0.77 0.72 0.58 0.39 0.40 0.47 0.40 0.25 0.16 0.11 0.11 0.11 0.13 0.15 0.18 0.20 0.21 0.26 0.27 0.30 0.32 0.35 0.35 0.30 0.26 0.32 0.44 0.42 0.42 0.45 0.49 0.53 0.59 0.59 0.62 0.61 0.47
0.00 0.00 0.00 0.00 0.00 0.05 0.11 0.15 0.23 0.30 0.61 1.03 1.04 0.69 0.44 0.50 0.57 0.63 0.60 0.46 0.31 0.22 0.20 0.20 0.20 0.24 0.27 0.28 0.48 0.58 0.59 0.71 0.65 0.72 0.69 0.65 0.63 0.51 0.39 0.48 0.62 0.75 0.91 1.00 1.09 1.18 1.19 1.05 0.78
0.00 0.00 0.00 0.00 0.01 0.01 0.04 0.10 0.18 0.34 0.72 1.21 1.33 0.95 0.73 0.70 0.78 0.70 0.71 0.68 0.56 0.45 0.34 0.29 0.34 0.35 0.38 0.46 0.68 0.81 0.85 0.94 0.92 0.97 1.04 1.11 1.09 0.90 0.77 0.88 1.09 1.19 1.33 1.32 1.51 1.72 1.42 1.32 1.27
0.00 0.00 0.00 0.00 0.01 0.01 0.08 0.14 0.22 0.27 0.60 0.90 0.81 0.66 0.66 0.69 0.82 0.82 0.80 0.85 0.72 0.64 0.61 0.61 0.65 0.64 0.65 0.75 0.79 0.83 0.80 0.86 0.92 1.04 1.19 1.32 1.29 1.30 1.26 1.27 1.34 1.43 1.56 1.66 1.77 1.80 1.73 1.84 1.79
0.00 0.00 0.00 0.01 0.02 0.03 0.09 0.12 0.20 0.32 0.40 0.52 0.47 0.53 0.73 0.78 0.86 0.87 0.83 0.84 0.93 1.01 1.02 0.99 0.95 0.88 0.80 0.72 0.70 0.68 0.67 0.68 0.78 0.88 0.95 1.06 1.27 1.41 1.41 1.25 1.21 1.24 1.44 1.70 1.95 1.97 2.17 2.22 1.99
0.00 0.00 0.00 0.01 0.02 0.03 0.06 0.08 0.17 0.34 0.40 0.51 0.60 0.61 0.77 0.93 0.97 0.97 1.05 1.18 1.43 1.49 1.43 1.36 1.20 1.01 0.92 0.83 0.73 0.70 0.64 0.67 0.70 0.71 0.80 0.96 1.10 1.26 1.21 1.20 1.24 1.26 1.27 1.38 1.71 1.91 2.09 2.00 1.76
0.00 0.02 0.03 0.03 0.02 0.03 0.04 0.13 0.30 0.45 0.64 0.65 0.74 0.76 0.85 1.15 1.26 1.38 1.55 1.78 2.08 2.24 1.94 1.54 1.28 1.08 0.95 0.94 0.87 0.78 0.70 0.66 0.67 0.64 0.70 0.79 0.86 0.97 1.01 1.00 0.99 1.04 1.05 1.07 1.20 1.36 1.50 1.42 1.29
0.01 0.06 0.15 0.07 0.03 0.05 0.09 0.37 0.57 0.48 0.76 1.04 0.91 1.00 1.21 1.46 1.55 1.72 2.01 2.40 2.81 2.90 2.47 1.83 1.54 1.50 1.36 1.20 0.92 0.73 0.65 0.58 0.51 0.48 0.50 0.53 0.55 0.58 0.61 0.60 0.58 0.62 0.61 0.65 0.74 0.83 0.91 0.96 1.03
0.02 0.05 0.13 0.15 0.08 0.07 0.16 0.52 0.69 0.50 0.61 0.88 1.03 1.15 1.41 1.58 1.56 1.61 1.85 2.32 2.90 3.28 3.05 2.40 2.18 2.17 1.63 1.02 0.70 0.55 0.48 0.39 0.35 0.37 0.35 0.37 0.39 0.40 0.43 0.42 0.41 0.40 0.38 0.39 0.41 0.49 0.59 0.67 0.74
0.02 0.03 0.08 0.19 0.14 0.14 0.22 0.41 0.66 0.68 0.81 1.00 1.07 1.12 1.29 1.31 1.26 1.34 1.40 1.48 2.06 2.43 2.23 2.02 1.96 1.58 1.05 0.62 0.43 0.31 0.27 0.23 0.21 0.25 0.27 0.28 0.31 0.33 0.36 0.34 0.33 0.29 0.27 0.29 0.34 0.38 0.41 0.42 0.46
0.02 0.03 0.07 0.13 0.14 0.21 0.34 0.44 0.61 0.73 0.93 1.08 1.07 1.00 0.96 0.97 1.00 1.03 0.98 0.86 0.97 1.06 0.98 1.04 0.98 0.85 0.54 0.37 0.24 0.17 0.14 0.13 0.13 0.16 0.16 0.19 0.23 0.28 0.34 0.29 0.32 0.29 0.24 0.24 0.26 0.29 0.30 0.28 0.29
0.03 0.05 0.10 0.13 0.13 0.18 0.32 0.56 0.68 0.74 0.75 0.83 0.89 0.81 0.77 0.79 0.79 0.67 0.57 0.57 0.49 0.51 0.52 0.51 0.51 0.42 0.25 0.18 0.15 0.13 0.11 0.08 0.07 0.07 0.09 0.09 0.12 0.17 0.23 0.30 0.25 0.25 0.25 0.25 0.24 0.26 0.25 0.22 0.24
0.04 0.05 0.06 0.10 0.10 0.17 0.31 0.75 0.81 0.69 0.61 0.56 0.65 0.68 0.60 0.58 0.50 0.37 0.31 0.27 0.36 0.52 0.43 0.27 0.26 0.21 0.13 0.11 0.10 0.10 0.10 0.10 0.09 0.08 0.07 0.08 0.07 0.09 0.14 0.21 0.24 0.27 0.24 0.27 0.32 0.30 0.27 0.21 0.19
0.03 0.03 0.02 0.02 0.06 0.28 0.38 0.77 0.83 0.67 0.66 0.51 0.47 0.48 0.35 0.27 0.25 0.24 0.20 0.18 0.23 0.30 0.28 0.22 0.21 0.20 0.12 0.09 0.08 0.08 0.07 0.08 0.08 0.07 0.06 0.07 0.06 0.07 0.08 0.10 0.15 0.22 0.26 0.33 0.26 0.29 0.30 0.25 0.19
0.01 0.01 0.01 0.03 0.07 0.18 0.30 0.63 0.80 0.59 0.67 0.47 0.29 0.19 0.11 0.08 0.09 0.13 0.12 0.10 0.09 0.09 0.13 0.16 0.25 0.29 0.20 0.14 0.10 0.09 0.07 0.06 0.07 0.07 0.07 0.08 0.10 0.11 0.12 0.12 0.11 0.12 0.19 0.26 0.29 0.35 0.32 0.32 0.27
0.01 0.01 0.07 0.14 0.18 0.37 0.40 0.42 0.67 0.47 0.35 0.20 0.12 0.07 0.04 0.03 0.03 0.06 0.06 0.05 0.05 0.06 0.07 0.10 0.19 0.26 0.21 0.16 0.14 0.15 0.15 0.13 0.12 0.11 0.11 0.14 0.17 0.19 0.19 0.20 0.20 0.19 0.17 0.17 0.19 0.24 0.30 0.35 0.36
0.01 0.02 0.14 0.31 0.44 0.54 0.27 0.43 0.73 0.35 0.19 0.09 0.06 0.03 0.02 0.01 0.01 0.02 0.02 0.03 0.03 0.04 0.04 0.04 0.08 0.13 0.12 0.10 0.11 0.16 0.23 0.29 0.30 0.25 0.22 0.20 0.21 0.23 0.23 0.22 0.24 0.27 0.27 0.25 0.20 0.16 0.20 0.28 0.33
0.01 0.01 0.03 0.06 0.13 0.23 0.26 0.82 0.65 0.18 0.09 0.05 0.02 0.02 0.02 0.01 0.01 0.01 0.01 0.02 0.01 0.01 0.01 0.02 0.03 0.03 0.03 0.04 0.05 0.07 0.11 0.18 0.26 0.31 0.30 0.30 0.32 0.27 0.23 0.21 0.22 0.26 0.30 0.31 0.28 0.22 0.20 0.22 0.26
0.01 0.00 0.01 0.01 0.03 0.13 0.35 0.51 0.26 0.07 0.03 0.02 0.01 0.01 0.01 0.00 0.00 0.00 0.00 0.00 0.00 0.00 0.00 0.00 0.01 0.01 0.01 0.01 0.01 0.01 0.02 0.04 0.06 0.10 0.14 0.21 0.31 0.30 0.24 0.20 0.19 0.22 0.25 0.30 0.31 0.30 0.29 0.27 0.24
0.02 0.01 0.01 0.01 0.03 0.09 0.24 0.40 0.35 0.11 0.04 0.02 0.01 0.01 0.00 0.00 0.00 0.00 0.00 0.00 0.00 0.00 0.00 0.00 0.00 0.00 0.00 0.00 0.00 0.00 0.01 0.01 0.02 0.03 0.04 0.06 0.11 0.15 0.15 0.15 0.15 0.17 0.19 0.23 0.29 0.34 0.40 0.42 0.38
0.02 0.01 0.01 0.01 0.02 0.03 0.11 0.18 0.15 0.08 0.06 0.02 0.01 0.00 0.00 0.00 0.00 0.00 0.00 0.00 0.00 0.00 0.00 0.00 0.00 0.00 0.00 0.00 0.00 0.00 0.00 0.00 0.00 0.01 0.01 0.02 0.02 0.03 0.04 0.06 0.08 0.10 0.12 0.15 0.21 0.27 0.38 0.51 0.59
0.02 0.01 0.01 0.01 0.02 0.02 0.03 0.04 0.04 0.03 0.04 0.02 0.01 0.00 0.00 0.00 0.00 0.00 0.00 0.00 0.00 0.00 0.00 0.00 0.00 0.00 0.00 0.00 0.00 0.00 0.00 0.00 0.00 0.00 0.00 0.00 0.01 0.01 0.01 0.02 0.02 0.03 0.04 0.07 0.11 0.17 0.24 0.37 0.53

GEFSSGP_prec_meanprecacc_066.txt.gz
Total_Precipitation_Accumulation
0.00 0.00 0.00 0.04 0.19 0.32 0.44 0.38 0.29 0.16 0.22 0.22 0.24 0.24 0.27 0.29 0.28 0.20 0.05 0.01 0.00 0.00 0.01 0.05 0.11 0.11 0.08 0.07 0.07 0.09 0.10 0.11 0.11 0.11 0.11 0.10 0.07 0.04 0.03 0.02 0.01 0.01 0.02 0.02 0.01 0.02 0.02 0.02 0.01
0.00 0.00 0.00 0.03 0.15 0.35 0.44 0.38 0.27 0.20 0.24 0.28 0.41 0.40 0.28 0.20 0.18 0.10 0.03 0.01 0.00 0.00 0.01 0.02 0.07 0.09 0.08 0.07 0.06 0.07 0.08 0.08 0.08 0.08 0.08 0.08 0.06 0.03 0.02 0.02 0.01 0.02 0.02 0.02 0.02 0.02 0.02 0.01 0.01
0.00 0.00 0.01 0.02 0.08 0.18 0.23 0.16 0.16 0.22 0.31 0.40 0.45 0.42 0.29 0.20 0.13 0.07 0.03 0.01 0.01 0.01 0.01 0.02 0.06 0.07 0.08 0.09 0.08 0.07 0.06 0.06 0.06 0.06 0.06 0.06 0.05 0.03 0.02 0.02 0.02 0.03 0.05 0.05 0.04 0.04 0.04 0.02 0.01
0.00 0.00 0.01 0.02 0.02 0.04 0.06 0.10 0.16 0.27 0.46 0.69 0.67 0.44 0.22 0.16 0.11 0.07 0.03 0.01 0.01 0.01 0.01 0.04 0.07 0.07 0.07 0.07 0.07 0.07 0.07 0.07 0.07 0.07 0.06 0.06 0.05 0.04 0.04 0.04 0.04 0.06 0.09 0.09 0.10 0.09 0.06 0.03 0.02
0.00 0.01 0.01 0.01 0.02 0.02 0.04 0.11 0.21 0.34 0.49 0.67 0.69 0.45 0.26 0.20 0.15 0.10 0.04 0.03 0.02 0.02 0.02 0.04 0.09 0.09 0.08 0.08 0.10 0.09 0.08 0.08 0.08 0.07 0.08 0.07 0.06 0.06 0.06 0.06 0.06 0.07 0.09 0.10 0.11 0.12 0.09 0.05 0.02
0.00 0.00 0.00 0.01 0.01 0.02 0.06 0.13 0.23 0.34 0.48 0.61 0.81 0.62 0.34 0.26 0.24 0.17 0.08 0.05 0.03 0.03 0.03 0.06 0.11 0.13 0.13 0.11 0.12 0.12 0.09 0.09 0.10 0.10 0.10 0.10 0.09 0.10 0.11 0.11 0.10 0.09 0.10 0.11 0.13 0.13 0.12 0.09 0.06
0.00 0.00 0.00 0.00 0.01 0.04 0.06 0.12 0.23 0.36 0.47 0.69 0.93 0.77 0.41 0.27 0.27 0.24 0.15 0.09 0.06 0.05 0.05 0.07 0.10 0.12 0.13 0.16 0.17 0.16 0.14 0.13 0.13 0.14 0.13 0.11 0.11 0.13 0.14 0.17 0.18 0.17 0.16 0.15 0.16 0.17 0.18 0.16 0.12
0.00 0.00 0.00 0.00 0.01 0.04 0.10 0.15 0.27 0.45 0.57 0.74 0.89 0.82 0.67 0.41 0.31 0.30 0.23 0.15 0.13 0.10 0.07 0.08 0.12 0.16 0.16 0.18 0.19 0.19 0.17 0.17 0.17 0.17 0.16 0.15 0.16 0.19 0.25 0.27 0.26 0.26 0.27 0.28 0.30 0.31 0.34 0.34 0.27
0.00 0.00 0.00 0.00 0.01 0.09 0.13 0.17 0.23 0.32 0.46 0.63 0.78 0.74 0.60 0.41 0.42 0.48 0.42 0.27 0.20 0.15 0.15 0.15 0.17 0.18 0.21 0.23 0.24 0.29 0.30 0.33 0.34 0.38 0.37 0.32 0.30 0.38 0.50 0.47 0.47 0.49 0.55 0.61 0.67 0.67 0.69 0.66 0.51
0.00 0.00 0.00 0.00 0.00 0.05 0.11 0.15 0.23 0.30 0.61 1.04 1.05 0.72 0.49 0.53 0.59 0.65 0.62 0.48 0.34 0.25 0.24 0.25 0.25 0.28 0.30 0.32 0.53 0.64 0.63 0.75 0.68 0.76 0.72 0.69 0.68 0.58 0.44 0.53 0.69 0.82 1.03 1.13 1.20 1.26 1.26 1.12 0.86
0.00 0.00 0.00 0.00 0.01 0.01 0.04 0.10 0.18 0.35 0.73 1.23 1.35 0.97 0.77 0.75 0.81 0.72 0.74 0.72 0.62 0.51 0.39 0.33 0.38 0.39 0.41 0.52 0.75 0.87 0.90 0.99 0.96 1.01 1.07 1.15 1.14 0.94 0.81 0.94 1.15 1.28 1.44 1.48 1.68 1.82 1.51 1.43 1.37
0.00 0.00 0.00 0.00 0.01 0.01 0.08 0.15 0.23 0.28 0.62 0.92 0.83 0.70 0.75 0.81 0.87 0.86 0.84 0.89 0.79 0.72 0.67 0.64 0.69 0.68 0.70 0.81 0.85 0.90 0.85 0.90 0.96 1.08 1.22 1.35 1.31 1.32 1.28 1.31 1.38 1.50 1.65 1.81 1.92 1.94 1.87 1.94 1.87
0.00 0.00 0.00 0.01 0.02 0.03 0.09 0.12 0.21 0.33 0.42 0.53 0.50 0.58 0.85 0.94 0.99 0.96 0.91 0.92 0.99 1.08 1.10 1.05 1.00 0.95 0.87 0.79 0.77 0.74 0.71 0.72 0.81 0.91 0.98 1.07 1.28 1.41 1.41 1.26 1.23 1.27 1.49 1.76 2.04 2.08 2.28 2.33 2.07
0.00 0.00 0.00 0.01 0.02 0.03 0.06 0.08 0.17 0.35 0.41 0.53 0.63 0.69 0.89 1.09 1.17 1.15 1.19 1.31 1.57 1.60 1.54 1.46 1.30 1.12 1.03 0.93 0.82 0.76 0.68 0.70 0.73 0.74 0.81 0.97 1.10 1.26 1.22 1.20 1.25 1.28 1.29 1.41 1.76 1.98 2.17 2.08 1.84
0.00 0.02 0.03 0.03 0.02 0.03 0.04 0.13 0.30 0.45 0.65 0.67 0.79 0.85 0.98 1.30 1.46 1.59 1.71 1.93 2.28 2.43 2.08 1.68 1.41 1.20 1.08 1.05 0.95 0.84 0.74 0.69 0.69 0.65 0.70 0.79 0.86 0.97 1.01 1.01 1.00 1.05 1.06 1.09 1.23 1.40 1.55 1.48 1.35
0.01 0.06 0.15 0.07 0.03 0.05 0.09 0.37 0.57 0.48 0.77 1.06 0.95 1.08 1.32 1.61 1.75 1.94 2.21 2.59 3.00 3.13 2.67 1.98 1.68 1.63 1.48 1.31 0.99 0.78 0.69 0.59 0.52 0.49 0.50 0.53 0.56 0.58 0.61 0.61 0.59 0.63 0.62 0.66 0.76 0.85 0.94 1.00 1.07
0.02 0.05 0.13 0.15 0.08 0.07 0.16 0.52 0.69 0.50 0.62 0.89 1.06 1.23 1.53 1.74 1.79 1.86 2.06 2.51 3.08 3.50 3.27 2.58 2.34 2.34 1.76 1.12 0.77 0.60 0.50 0.40 0.36 0.37 0.35 0.37 0.39 0.40 0.44 0.43 0.42 0.40 0.39 0.39 0.41 0.50 0.60 0.68 0.75
0.02 0.03 0.08 0.19 0.14 0.14 0.22 0.41 0.66 0.68 0.82 1.02 1.11 1.19 1.40 1.47 1.44 1.56 1.62 1.66 2.24 2.63 2.44 2.20 2.11 1.73 1.14 0.67 0.47 0.34 0.28 0.24 0.21 0.25 0.27 0.28 0.31 0.33 0.36 0.34 0.33 0.30 0.28 0.29 0.34 0.39 0.42 0.42 0.46
0.02 0.03 0.07 0.13 0.14 0.21 0.34 0.44 0.61 0.74 0.94 1.09 1.10 1.03 1.02 1.08 1.13 1.17 1.15 1.03 1.17 1.28 1.18 1.21 1.10 0.93 0.58 0.39 0.25 0.17 0.15 0.14 0.13 0.16 0.16 0.19 0.23 0.28 0.34 0.29 0.32 0.29 0.24 0.24 0.26 0.30 0.30 0.28 0.29
0.03 0.05 0.10 0.13 0.13 0.18 0.32 0.56 0.68 0.74 0.76 0.84 0.91 0.85 0.81 0.84 0.84 0.75 0.69 0.73 0.67 0.69 0.69 0.64 0.62 0.48 0.29 0.20 0.16 0.14 0.12 0.08 0.07 0.07 0.09 0.09 0.12 0.17 0.23 0.30 0.25 0.25 0.25 0.25 0.24 0.27 0.25 0.22 0.24
0.04 0.05 0.06 0.10 0.10 0.17 0.31 0.75 0.81 0.69 0.61 0.56 0.65 0.69 0.62 0.61 0.54 0.43 0.39 0.38 0.49 0.65 0.57 0.38 0.34 0.26 0.17 0.12 0.11 0.10 0.10 0.10 0.09 0.08 0.07 0.08 0.07 0.09 0.14 0.21 0.24 0.27 0.24 0.27 0.32 0.30 0.27 0.21 0.19
0.03 0.03 0.02 0.02 0.06 0.28 0.38 0.77 0.83 0.67 0.66 0.51 0.47 0.48 0.36 0.28 0.28 0.28 0.25 0.25 0.31 0.39 0.37 0.30 0.27 0.24 0.14 0.10 0.09 0.08 0.07 0.08 0.08 0.07 0.06 0.07 0.06 0.07 0.08 0.10 0.15 0.22 0.26 0.33 0.26 0.29 0.30 0.25 0.19
0.01 0.01 0.01 0.03 0.07 0.18 0.30 0.63 0.80 0.59 0.67 0.47 0.29 0.19 0.11 0.09 0.11 0.15 0.15 0.15 0.14 0.15 0.19 0.22 0.29 0.32 0.21 0.15 0.11 0.10 0.08 0.07 0.07 0.07 0.07 0.08 0.10 0.11 0.12 0.12 0.11 0.12 0.19 0.26 0.29 0.35 0.32 0.32 0.27
0.01 0.01 0.07 0.14 0.18 0.37 0.40 0.42 0.68 0.47 0.35 0.20 0.12 0.07 0.04 0.04 0.05 0.08 0.09 0.09 0.09 0.10 0.11 0.14 0.22 0.28 0.22 0.17 0.14 0.16 0.15 0.13 0.12 0.11 0.11 0.14 0.17 0.19 0.19 0.20 0.20 0.19 0.17 0.17 0.19 0.24 0.30 0.35 0.36
0.01 0.02 0.15 0.31 0.44 0.54 0.27 0.43 0.73 0.35 0.19 0.09 0.06 0.03 0.02 0.02 0.02 0.04 0.06 0.06 0.06 0.06 0.06 0.06 0.10 0.14 0.13 0.11 0.11 0.16 0.24 0.30 0.31 0.26 0.22 0.20 0.21 0.23 0.23 0.22 0.24 0.27 0.27 0.25 0.20 0.16 0.20 0.28 0.33
0.01 0.01 0.03 0.06 0.13 0.23 0.26 0.82 0.65 0.18 0.09 0.05 0.02 0.02 0.02 0.01 0.01 0.01 0.03 0.04 0.02 0.02 0.02 0.03 0.04 0.03 0.03 0.04 0.06 0.07 0.12 0.18 0.26 0.32 0.30 0.30 0.32 0.27 0.23 0.21 0.22 0.26 0.30 0.31 0.28 0.22 0.20 0.22 0.26
0.01 0.00 0.01 0.01 0.03 0.13 0.35 0.51 0.26 0.07 0.03 0.02 0.01 0.01 0.01 0.00 0.00 0.00 0.01 0.01 0.00 0.00 0.00 0.01 0.01 0.01 0.01 0.01 0.01 0.02 0.02 0.04 0.06 0.10 0.14 0.21 0.31 0.30 0.24 0.20 0.19 0.22 0.25 0.30 0.31 0.30 0.29 0.27 0.24
0.02 0.01 0.01 0.01 0.03 0.09 0.24 0.40 0.35 0.11 0.04 0.02 0.01 0.01 0.00 0.00 0.00 0.00 0.00 0.00 0.00 0.00 0.00 0.00 0.00 0.00 0.00 0.01 0.00 0.00 0.01 0.01 0.03 0.04 0.04 0.06 0.11 0.15 0.15 0.15 0.15 0.17 0.19 0.23 0.29 0.34 0.40 0.42 0.38
0.02 0.01 0.01 0.01 0.02 0.03 0.11 0.18 0.15 0.08 0.06 0.02 0.01 0.00 0.00 0.00 0.00 0.00 0.00 0.00 0.00 0.00 0.00 0.00 0.00 0.00 0.00 0.00 0.00 0.00 0.00 0.00 0.00 0.01 0.01 0.02 0.02 0.03 0.04 0.06 0.08 0.10 0.12 0.15 0.21 0.27 0.38 0.51 0.59
0.02 0.01 0.01 0.02 0.02 0.02 0.03 0.04 0.04 0.04 0.04 0.02 0.01 0.00 0.01 0.00 0.00 0.00 0.00 0.00 0.00 0.00 0.00 0.00 0.00 0.00 0.00 0.00 0.00 0.01 0.00 0.00 0.00 0.00 0.00 0.00 0.01 0.01 0.01 0.02 0.02 0.03 0.04 0.07 0.11 0.17 0.24 0.37 0.53

GEFSSGP_prec_meanprecacc_072.txt.gz
Total_Precipitation_Accumulation
0.00 0.00 0.00 0.04 0.23 0.40 0.50 0.39 0.29 0.16 0.22 0.22 0.24 0.24 0.28 0.35 0.44 0.43 0.12 0.01 0.00 0.00 0.01 0.05 0.11 0.11 0.09 0.08 0.09 0.12 0.13 0.13 0.12 0.12 0.12 0.11 0.07 0.05 0.03 0.02 0.02 0.02 0.02 0.02 0.02 0.03 0.02 0.02 0.02
0.00 0.00 0.00 0.03 0.18 0.40 0.46 0.38 0.28 0.20 0.24 0.28 0.41 0.40 0.29 0.27 0.27 0.15 0.04 0.01 0.00 0.00 0.01 0.02 0.07 0.10 0.10 0.09 0.09 0.11 0.11 0.10 0.09 0.08 0.08 0.08 0.06 0.03 0.03 0.03 0.02 0.03 0.03 0.03 0.02 0.03 0.03 0.02 0.02
0.00 0.00 0.01 0.03 0.10 0.20 0.23 0.16 0.17 0.22 0.31 0.40 0.45 0.43 0.31 0.25 0.18 0.08 0.03 0.01 0.02 0.01 0.01 0.02 0.06 0.08 0.09 0.10 0.10 0.10 0.09 0.09 0.08 0.07 0.07 0.06 0.05 0.03 0.03 0.03 0.04 0.05 0.06 0.06 0.05 0.05 0.04 0.03 0.02
0.00 0.00 0.02 0.02 0.03 0.04 0.06 0.10 0.16 0.27 0.46 0.69 0.68 0.46 0.24 0.17 0.12 0.08 0.03 0.01 0.02 0.02 0.01 0.04 0.07 0.08 0.09 0.09 0.09 0.09 0.09 0.09 0.09 0.08 0.07 0.06 0.05 0.05 0.05 0.04 0.05 0.07 0.09 0.10 0.10 0.09 0.07 0.03 0.02
0.00 0.01 0.02 0.01 0.02 0.02 0.04 0.11 0.21 0.35 0.50 0.68 0.70 0.50 0.31 0.21 0.15 0.11 0.05 0.03 0.02 0.02 0.02 0.04 0.09 0.10 0.10 0.11 0.13 0.11 0.10 0.09 0.09 0.09 0.09 0.09 0.08 0.07 0.07 0.07 0.07 0.08 0.10 0.11 0.11 0.12 0.09 0.05 0.03
0.00 0.00 0.01 0.01 0.01 0.02 0.06 0.13 0.23 0.35 0.49 0.62 0.84 0.72 0.41 0.29 0.26 0.18 0.09 0.06 0.03 0.03 0.03 0.06 0.12 0.15 0.15 0.15 0.16 0.15 0.13 0.11 0.11 0.11 0.11 0.11 0.10 0.10 0.11 0.11 0.11 0.10 0.11 0.12 0.13 0.14 0.13 0.09 0.06
0.00 0.00 0.00 0.00 0.01 0.04 0.06 0.12 0.23 0.36 0.49 0.72 0.95 0.88 0.53 0.32 0.31 0.25 0.16 0.10 0.08 0.05 0.05 0.07 0.10 0.13 0.14 0.19 0.21 0.20 0.17 0.15 0.14 0.15 0.14 0.12 0.11 0.13 0.14 0.17 0.18 0.18 0.18 0.16 0.17 0.18 0.19 0.16 0.12
0.00 0.00 0.00 0.00 0.01 0.04 0.10 0.15 0.27 0.45 0.61 0.80 0.93 0.91 0.80 0.47 0.33 0.31 0.24 0.17 0.17 0.13 0.09 0.11 0.13 0.16 0.16 0.18 0.21 0.21 0.19 0.18 0.17 0.17 0.17 0.16 0.17 0.21 0.27 0.28 0.27 0.27 0.28 0.30 0.32 0.33 0.35 0.34 0.28
0.00 0.00 0.00 0.00 0.01 0.09 0.13 0.17 0.23 0.32 0.47 0.64 0.81 0.84 0.67 0.47 0.43 0.49 0.43 0.30 0.25 0.20 0.18 0.23 0.23 0.20 0.23 0.24 0.25 0.31 0.32 0.34 0.36 0.41 0.37 0.34 0.36 0.49 0.60 0.53 0.52 0.52 0.57 0.63 0.69 0.70 0.72 0.69 0.53
0.00 0.00 0.00 0.00 0.00 0.05 0.11 0.15 0.23 0.30 0.62 1.07 1.09 0.76 0.52 0.56 0.63 0.68 0.64 0.51 0.41 0.33 0.29 0.31 0.33 0.32 0.34 0.37 0.56 0.73 0.69 0.79 0.75 0.86 0.78 0.77 0.79 0.67 0.54 0.64 0.75 0.86 1.06 1.16 1.23 1.28 1.29 1.16 0.93
0.00 0.00 0.00 0.00 0.01 0.01 0.04 0.10 0.18 0.35 0.77 1.32 1.44 1.06 0.83 0.80 0.88 0.79 0.78 0.77 0.68 0.58 0.45 0.37 0.45 0.44 0.47 0.62 0.82 0.97 1.00 1.07 1.04 1.09 1.12 1.21 1.19 1.00 0.87 1.04 1.26 1.38 1.52 1.61 1.84 1.90 1.58 1.53 1.52
0.00 0.00 0.00 0.00 0.01 0.01 0.08 0.15 0.23 0.28 0.66 0.97 0.93 0.77 0.80 0.89 0.96 0.94 0.92 0.96 0.85 0.78 0.74 0.71 0.76 0.75 0.79 0.87 0.91 0.96 0.90 0.95 1.04 1.14 1.25 1.38 1.36 1.37 1.34 1.38 1.48 1.61 1.80 2.01 2.11 2.11 1.99 2.06 2.01
0.00 0.00 0.00 0.01 0.02 0.03 0.09 0.12 0.21 0.34 0.43 0.55 0.52 0.62 0.90 1.03 1.10 1.14 1.12 1.05 1.07 1.16 1.20 1.17 1.12 1.05 0.98 0.88 0.84 0.78 0.76 0.76 0.85 0.94 1.00 1.08 1.29 1.43 1.44 1.29 1.28 1.34 1.57 1.88 2.18 2.21 2.41 2.47 2.25
0.00 0.00 0.00 0.02 0.02 0.03 0.06 0.08 0.18 0.37 0.42 0.53 0.65 0.75 0.99 1.21 1.31 1.37 1.59 1.66 1.75 1.72 1.65 1.60 1.43 1.23 1.13 1.03 0.89 0.80 0.71 0.72 0.74 0.74 0.82 0.97 1.10 1.26 1.23 1.22 1.27 1.31 1.33 1.48 1.86 2.10 2.29 2.21 1.98
0.00 0.02 0.04 0.04 0.02 0.03 0.04 0.14 0.32 0.46 0.65 0.68 0.81 0.93 1.11 1.45 1.64 1.86 2.09 2.39 2.59 2.61 2.23 1.83 1.54 1.32 1.20 1.15 1.01 0.87 0.76 0.70 0.70 0.65 0.71 0.80 0.87 0.98 1.02 1.02 1.01 1.07 1.09 1.13 1.27 1.47 1.64 1.57 1.46
0.01 0.07 0.16 0.08 0.03 0.05 0.09 0.39 0.59 0.50 0.79 1.10 1.00 1.18 1.45 1.76 1.95 2.23 2.57 3.00 3.34 3.35 2.85 2.17 1.81 1.74 1.59 1.40 1.06 0.81 0.70 0.60 0.52 0.49 0.50 0.54 0.57 0.59 0.62 0.63 0.61 0.64 0.64 0.68 0.78 0.88 0.99 1.07 1.15
0.03 0.06 0.13 0.15 0.08 0.07 0.16 0.56 0.72 0.51 0.63 0.92 1.12 1.30 1.62 1.85 1.97 2.14 2.36 2.86 3.37 3.73 3.49 2.78 2.53 2.49 1.87 1.19 0.81 0.63 0.52 0.41 0.36 0.37 0.35 0.37 0.40 0.41 0.45 0.44 0.43 0.41 0.39 0.40 0.42 0.52 0.62 0.71 0.78
0.02 0.04 0.09 0.19 0.14 0.14 0.22 0.42 0.67 0.68 0.82 1.05 1.17 1.26 1.49 1.57 1.59 1.74 1.84 1.89 2.45 2.83 2.64 2.39 2.30 1.88 1.26 0.76 0.51 0.36 0.30 0.25 0.21 0.25 0.27 0.28 0.31 0.33 0.37 0.36 0.34 0.31 0.28 0.30 0.35 0.40 0.44 0.44 0.48
0.02 0.03 0.08 0.13 0.14 0.21 0.34 0.44 0.62 0.74 0.94 1.12 1.15 1.09 1.11 1.19 1.29 1.35 1.34 1.20 1.32 1.42 1.34 1.36 1.29 1.09 0.71 0.48 0.28 0.20 0.17 0.15 0.14 0.16 0.16 0.19 0.23 0.28 0.35 0.30 0.33 0.30 0.25 0.25 0.27 0.30 0.31 0.29 0.29
0.03 0.05 0.10 0.13 0.13 0.18 0.32 0.56 0.69 0.75 0.77 0.86 0.94 0.90 0.88 0.92 0.95 0.90 0.83 0.88 0.79 0.81 0.81 0.78 0.78 0.64 0.42 0.28 0.20 0.17 0.13 0.09 0.08 0.07 0.09 0.09 0.12 0.17 0.23 0.31 0.25 0.26 0.26 0.25 0.25 0.27 0.25 0.22 0.24
0.04 0.05 0.06 0.10 0.10 0.18 0.32 0.76 0.82 0.71 0.63 0.57 0.67 0.71 0.66 0.65 0.60 0.51 0.48 0.48 0.62 0.79 0.70 0.52 0.50 0.40 0.28 0.19 0.14 0.12 0.12 0.11 0.09 0.08 0.07 0.08 0.07 0.09 0.14 0.21 0.24 0.27 0.25 0.28 0.32 0.30 0.27 0.21 0.19
0.03 0.03 0.02 0.02 0.06 0.28 0.39 0.79 0.84 0.69 0.67 0.51 0.48 0.50 0.38 0.31 0.32 0.34 0.33 0.34 0.42 0.52 0.51 0.45 0.40 0.34 0.22 0.15 0.11 0.10 0.09 0.09 0.08 0.07 0.07 0.07 0.06 0.07 0.08 0.10 0.15 0.22 0.26 0.33 0.26 0.29 0.30 0.26 0.19
0.01 0.01 0.01 0.03 0.08 0.21 0.33 0.64 0.82 0.61 0.68 0.47 0.30 0.20 0.13 0.11 0.12 0.19 0.21 0.23 0.23 0.23 0.32 0.35 0.41 0.41 0.27 0.20 0.14 0.12 0.10 0.08 0.07 0.07 0.09 0.09 0.10 0.11 0.12 0.12 0.11 0.12 0.19 0.26 0.29 0.35 0.32 0.32 0.27
0.01 0.01 0.07 0.15 0.24 0.48 0.48 0.45 0.69 0.50 0.36 0.20 0.12 0.07 0.05 0.04 0.06 0.10 0.12 0.15 0.17 0.17 0.19 0.23 0.32 0.37 0.28 0.21 0.18 0.18 0.18 0.16 0.14 0.13 0.13 0.15 0.18 0.20 0.19 0.20 0.20 0.20 0.18 0.17 0.19 0.24 0.30 0.35 0.36
0.01 0.02 0.16 0.34 0.54 0.66 0.35 0.45 0.74 0.35 0.19 0.09 0.06 0.03 0.02 0.02 0.03 0.05 0.07 0.09 0.11 0.12 0.11 0.11 0.16 0.21 0.18 0.15 0.14 0.18 0.27 0.33 0.33 0.27 0.24 0.21 0.21 0.23 0.23 0.23 0.24 0.27 0.28 0.25 0.20 0.16 0.20 0.28 0.33
0.01 0.01 0.04 0.09 0.17 0.26 0.28 0.84 0.67 0.18 0.09 0.05 0.02 0.02 0.02 0.01 0.01 0.02 0.04 0.05 0.05 0.06 0.06 0.06 0.09 0.10 0.09 0.08 0.10 0.10 0.14 0.19 0.27 0.34 0.31 0.31 0.32 0.27 0.23 0.21 0.22 0.26 0.30 0.31 0.28 0.22 0.20 0.22 0.26
0.01 0.00 0.01 0.02 0.04 0.15 0.39 0.55 0.27 0.07 0.04 0.02 0.01 0.01 0.01 0.00 0.00 0.00 0.01 0.01 0.02 0.03 0.03 0.03 0.05 0.07 0.06 0.04 0.04 0.04 0.04 0.05 0.08 0.13 0.16 0.21 0.31 0.31 0.24 0.20 0.19 0.22 0.25 0.30 0.31 0.30 0.29 0.27 0.24
0.02 0.01 0.01 0.01 0.03 0.11 0.27 0.47 0.43 0.15 0.05 0.02 0.01 0.01 0.00 0.00 0.00 0.00 0.00 0.00 0.01 0.03 0.03 0.02 0.03 0.04 0.04 0.03 0.02 0.01 0.02 0.03 0.04 0.05 0.05 0.07 0.11 0.15 0.15 0.15 0.15 0.17 0.19 0.23 0.29 0.34 0.40 0.42 0.38
0.03 0.01 0.01 0.01 0.02 0.04 0.15 0.27 0.27 0.14 0.07 0.03 0.01 0.01 0.01 0.01 0.00 0.00 0.00 0.00 0.00 0.01 0.01 0.02 0.03 0.03 0.02 0.02 0.02 0.02 0.02 0.01 0.02 0.03 0.03 0.03 0.03 0.03 0.04 0.06 0.08 0.10 0.12 0.15 0.21 0.27 0.38 0.52 0.59
0.03 0.03 0.02 0.02 0.02 0.03 0.04 0.08 0.06 0.05 0.05 0.02 0.01 0.01 0.02 0.01 0.00 0.00 0.00 0.00 0.00 0.01 0.01 0.01 0.03 0.02 0.01 0.01 0.02 0.02 0.02 0.02 0.03 0.03 0.03 0.03 0.03 0.02 0.02 0.02 0.03 0.03 0.04 0.07 0.11 0.17 0.24 0.37 0.53

GEFSSGP_prec_meanprecacc_078.txt.gz
Total_Precipitation_Accumulation
0.00 0.00 0.02 0.09 0.36 0.67 0.71 0.47 0.38 0.28 0.27 0.25 0.27 0.26 0.31 0.43 0.60 0.66 0.27 0.08 0.01 0.00 0.01 0.05 0.11 0.11 0.09 0.09 0.10 0.13 0.13 0.14 0.13 0.12 0.12 0.11 0.08 0.05 0.03 0.03 0.02 0.02 0.03 0.02 0.03 0.03 0.03 0.03 0.03
0.00 0.00 0.02 0.09 0.31 0.61 0.53 0.40 0.32 0.23 0.25 0.29 0.42 0.42 0.32 0.38 0.40 0.31 0.18 0.09 0.02 0.01 0.01 0.02 0.07 0.10 0.10 0.09 0.10 0.11 0.12 0.10 0.10 0.09 0.09 0.09 0.06 0.04 0.03 0.03 0.03 0.03 0.04 0.03 0.03 0.03 0.03 0.02 0.02
0.00 0.01 0.04 0.10 0.20 0.29 0.27 0.18 0.18 0.23 0.32 0.41 0.46 0.46 0.42 0.39 0.33 0.24 0.17 0.08 0.04 0.01 0.01 0.02 0.06 0.08 0.09 0.11 0.10 0.11 0.10 0.09 0.09 0.08 0.08 0.07 0.06 0.04 0.03 0.04 0.04 0.05 0.06 0.06 0.05 0.05 0.05 0.03 0.03
0.01 0.02 0.07 0.10 0.06 0.05 0.07 0.10 0.17 0.27 0.47 0.70 0.69 0.54 0.43 0.32 0.24 0.18 0.20 0.12 0.05 0.02 0.01 0.04 0.07 0.08 0.09 0.09 0.10 0.10 0.10 0.09 0.10 0.09 0.08 0.07 0.06 0.06 0.05 0.05 0.05 0.07 0.09 0.10 0.10 0.09 0.07 0.04 0.03
0.01 0.02 0.06 0.06 0.03 0.03 0.04 0.11 0.21 0.35 0.51 0.69 0.73 0.63 0.54 0.39 0.27 0.23 0.17 0.14 0.08 0.05 0.03 0.04 0.09 0.10 0.10 0.11 0.13 0.12 0.10 0.10 0.10 0.09 0.09 0.09 0.08 0.08 0.07 0.07 0.07 0.08 0.10 0.11 0.11 0.12 0.10 0.06 0.03
0.00 0.01 0.03 0.02 0.02 0.03 0.06 0.13 0.23 0.35 0.49 0.65 0.89 0.90 0.67 0.45 0.41 0.34 0.22 0.15 0.11 0.09 0.05 0.06 0.12 0.15 0.15 0.15 0.17 0.16 0.13 0.12 0.12 0.12 0.12 0.11 0.10 0.10 0.12 0.12 0.11 0.11 0.11 0.12 0.13 0.14 0.13 0.10 0.07
0.00 0.00 0.01 0.01 0.02 0.04 0.06 0.12 0.23 0.36 0.50 0.77 1.04 1.05 0.71 0.48 0.44 0.41 0.35 0.23 0.20 0.13 0.08 0.08 0.10 0.13 0.15 0.19 0.21 0.20 0.17 0.15 0.15 0.15 0.14 0.12 0.12 0.13 0.15 0.18 0.19 0.18 0.18 0.16 0.17 0.18 0.19 0.17 0.13
0.00 0.00 0.00 0.00 0.01 0.04 0.10 0.15 0.27 0.45 0.63 0.85 1.01 1.08 0.97 0.58 0.43 0.46 0.49 0.40 0.41 0.27 0.14 0.13 0.13 0.16 0.16 0.18 0.21 0.21 0.19 0.18 0.18 0.18 0.18 0.18 0.20 0.25 0.30 0.30 0.29 0.28 0.29 0.30 0.33 0.33 0.35 0.35 0.28
0.00 0.00 0.00 0.00 0.01 0.09 0.13 0.17 0.23 0.33 0.51 0.71 0.85 0.90 0.76 0.55 0.53 0.62 0.65 0.49 0.47 0.42 0.27 0.25 0.24 0.20 0.23 0.24 0.25 0.32 0.32 0.34 0.37 0.41 0.38 0.35 0.38 0.51 0.64 0.57 0.56 0.56 0.59 0.64 0.70 0.71 0.73 0.69 0.54
0.00 0.00 0.00 0.00 0.00 0.05 0.11 0.15 0.23 0.31 0.66 1.18 1.18 0.84 0.60 0.68 0.75 0.79 0.78 0.64 0.55 0.53 0.43 0.37 0.36 0.34 0.36 0.38 0.57 0.74 0.70 0.80 0.76 0.86 0.78 0.78 0.81 0.70 0.58 0.69 0.81 0.91 1.09 1.19 1.25 1.30 1.30 1.18 0.95
0.00 0.00 0.00 0.00 0.01 0.01 0.04 0.10 0.18 0.36 0.80 1.41 1.56 1.16 0.92 0.91 1.04 0.94 0.92 0.90 0.82 0.76 0.71 0.50 0.50 0.48 0.55 0.65 0.84 0.99 1.03 1.09 1.05 1.10 1.14 1.22 1.22 1.03 0.91 1.07 1.30 1.42 1.56 1.63 1.88 1.93 1.59 1.55 1.56
0.00 0.00 0.00 0.00 0.01 0.01 0.08 0.15 0.23 0.29 0.71 1.05 1.01 0.86 0.92 1.01 1.10 1.16 1.14 1.19 1.06 0.99 1.03 0.90 0.89 0.84 0.85 0.89 0.93 0.98 0.94 0.98 1.06 1.15 1.26 1.40 1.37 1.38 1.35 1.41 1.49 1.63 1.82 2.03 2.12 2.12 2.01 2.11 2.09
0.00 0.00 0.00 0.01 0.03 0.04 0.09 0.12 0.21 0.34 0.48 0.61 0.57 0.68 1.00 1.17 1.31 1.45 1.44 1.51 1.50 1.48 1.46 1.37 1.35 1.20 1.04 0.91 0.86 0.81 0.79 0.78 0.86 0.94 1.01 1.09 1.30 1.43 1.44 1.30 1.29 1.34 1.57 1.89 2.19 2.22 2.43 2.52 2.33
0.00 0.00 0.01 0.03 0.03 0.04 0.07 0.09 0.19 0.38 0.43 0.56 0.69 0.82 1.08 1.42 1.63 1.75 2.02 2.21 2.37 2.21 1.96 1.86 1.73 1.40 1.22 1.07 0.91 0.83 0.73 0.74 0.76 0.75 0.82 0.98 1.10 1.26 1.23 1.22 1.27 1.31 1.34 1.48 1.86 2.10 2.30 2.23 2.01
0.00 0.02 0.05 0.06 0.03 0.05 0.05 0.15 0.33 0.48 0.67 0.70 0.86 1.04 1.29 1.69 2.00 2.34 2.61 3.02 3.26 3.17 2.59 2.09 1.83 1.56 1.34 1.22 1.05 0.90 0.79 0.72 0.71 0.67 0.72 0.80 0.87 0.98 1.02 1.02 1.02 1.07 1.09 1.13 1.27 1.48 1.65 1.58 1.47
0.01 0.08 0.17 0.10 0.06 0.06 0.10 0.40 0.60 0.51 0.81 1.12 1.05 1.29 1.62 1.98 2.25 2.70 3.22 3.75 4.07 4.04 3.32 2.49 2.00 1.91 1.72 1.51 1.12 0.85 0.73 0.62 0.54 0.50 0.50 0.54 0.57 0.59 0.62 0.63 0.61 0.64 0.64 0.68 0.78 0.89 0.99 1.07 1.15
0.03 0.07 0.15 0.17 0.10 0.09 0.17 0.57 0.73 0.52 0.65 0.94 1.16 1.37 1.75 2.03 2.17 2.52 3.05 3.70 4.05 4.32 3.97 3.10 2.77 2.62 1.98 1.31 0.88 0.67 0.55 0.43 0.37 0.39 0.36 0.38 0.40 0.41 0.45 0.44 0.43 0.41 0.39 0.40 0.42 0.52 0.62 0.71 0.79
0.02 0.04 0.09 0.21 0.16 0.16 0.24 0.43 0.69 0.71 0.86 1.07 1.21 1.34 1.59 1.68 1.75 2.01 2.39 2.67 3.04 3.27 3.02 2.67 2.51 2.03 1.37 0.85 0.57 0.39 0.32 0.26 0.22 0.26 0.27 0.28 0.31 0.33 0.37 0.36 0.34 0.31 0.28 0.30 0.35 0.40 0.44 0.44 0.48
0.02 0.04 0.08 0.14 0.16 0.22 0.35 0.46 0.65 0.80 1.01 1.16 1.18 1.15 1.17 1.26 1.40 1.52 1.61 1.73 1.79 1.74 1.62 1.60 1.47 1.21 0.80 0.54 0.31 0.21 0.18 0.16 0.14 0.16 0.16 0.19 0.23 0.28 0.35 0.30 0.33 0.30 0.25 0.25 0.27 0.30 0.31 0.29 0.29
0.03 0.06 0.11 0.14 0.14 0.19 0.34 0.59 0.73 0.80 0.83 0.90 0.97 0.94 0.91 0.97 1.03 1.01 1.02 1.20 1.11 1.03 1.01 0.96 0.93 0.73 0.47 0.33 0.22 0.17 0.13 0.09 0.08 0.08 0.09 0.09 0.12 0.17 0.23 0.31 0.25 0.26 0.26 0.25 0.25 0.27 0.25 0.22 0.24
0.04 0.05 0.06 0.10 0.11 0.19 0.34 0.83 0.90 0.75 0.67 0.60 0.70 0.74 0.68 0.68 0.65 0.59 0.61 0.68 0.82 0.97 0.87 0.69 0.65 0.50 0.33 0.21 0.15 0.13 0.12 0.12 0.10 0.08 0.07 0.08 0.07 0.09 0.14 0.21 0.24 0.27 0.25 0.28 0.32 0.30 0.27 0.21 0.19
0.04 0.03 0.02 0.02 0.07 0.30 0.42 0.84 0.90 0.74 0.72 0.54 0.51 0.51 0.41 0.33 0.35 0.40 0.41 0.44 0.55 0.66 0.65 0.61 0.57 0.45 0.29 0.19 0.13 0.11 0.10 0.10 0.09 0.07 0.07 0.07 0.06 0.07 0.08 0.10 0.15 0.22 0.26 0.33 0.26 0.29 0.30 0.26 0.19
0.01 0.01 0.01 0.03 0.10 0.27 0.39 0.71 0.90 0.69 0.74 0.51 0.32 0.22 0.14 0.12 0.15 0.24 0.27 0.30 0.31 0.34 0.44 0.50 0.55 0.52 0.35 0.24 0.17 0.14 0.11 0.09 0.08 0.08 0.09 0.09 0.10 0.11 0.12 0.12 0.11 0.12 0.19 0.26 0.29 0.35 0.32 0.32 0.27
0.01 0.01 0.08 0.17 0.29 0.60 0.58 0.57 0.84 0.59 0.39 0.22 0.14 0.08 0.06 0.06 0.08 0.14 0.17 0.19 0.23 0.26 0.28 0.33 0.42 0.48 0.37 0.27 0.21 0.21 0.20 0.17 0.15 0.13 0.14 0.15 0.18 0.20 0.19 0.20 0.20 0.20 0.18 0.17 0.19 0.24 0.30 0.35 0.36
0.02 0.03 0.16 0.36 0.61 0.79 0.45 0.57 0.90 0.43 0.22 0.11 0.07 0.05 0.03 0.03 0.04 0.07 0.10 0.11 0.15 0.18 0.18 0.18 0.25 0.30 0.27 0.22 0.18 0.21 0.29 0.34 0.33 0.28 0.24 0.21 0.21 0.23 0.23 0.23 0.24 0.27 0.28 0.25 0.20 0.16 0.20 0.28 0.33
0.02 0.02 0.05 0.11 0.20 0.33 0.37 0.96 0.80 0.23 0.12 0.07 0.04 0.03 0.03 0.02 0.02 0.02 0.04 0.07 0.08 0.11 0.12 0.12 0.16 0.18 0.17 0.13 0.14 0.13 0.16 0.20 0.28 0.35 0.31 0.31 0.32 0.27 0.23 0.21 0.22 0.26 0.30 0.31 0.28 0.22 0.20 0.22 0.26
0.02 0.01 0.02 0.03 0.05 0.21 0.49 0.69 0.38 0.10 0.06 0.05 0.03 0.03 0.02 0.02 0.01 0.01 0.01 0.04 0.05 0.05 0.07 0.07 0.10 0.13 0.12 0.09 0.08 0.06 0.06 0.06 0.09 0.14 0.16 0.21 0.31 0.31 0.24 0.20 0.19 0.22 0.25 0.30 0.31 0.30 0.29 0.27 0.24
0.03 0.02 0.02 0.02 0.04 0.15 0.36 0.58 0.54 0.20 0.09 0.05 0.03 0.02 0.02 0.01 0.01 0.01 0.01 0.01 0.02 0.04 0.06 0.06 0.08 0.09 0.09 0.07 0.05 0.03 0.05 0.04 0.05 0.06 0.06 0.07 0.12 0.15 0.16 0.16 0.16 0.17 0.19 0.23 0.29 0.34 0.40 0.42 0.38
0.04 0.03 0.02 0.02 0.03 0.07 0.22 0.35 0.35 0.19 0.11 0.07 0.04 0.03 0.04 0.03 0.02 0.02 0.02 0.01 0.01 0.04 0.06 0.06 0.08 0.07 0.05 0.05 0.04 0.04 0.04 0.03 0.03 0.03 0.03 0.04 0.04 0.04 0.05 0.07 0.09 0.10 0.12 0.15 0.21 0.27 0.38 0.52 0.59
0.05 0.06 0.05 0.04 0.04 0.05 0.09 0.15 0.13 0.12 0.12 0.11 0.07 0.04 0.05 0.04 0.02 0.02 0.02 0.02 0.02 0.05 0.07 0.08 0.08 0.06 0.03 0.03 0.04 0.04 0.04 0.04 0.05 0.05 0.05 0.05 0.05 0.05 0.04 0.06 0.07 0.05 0.06 0.08 0.12 0.18 0.25 0.37 0.53

GEFSSGP_prec_meanprecacc_084.txt.gz
Total_Precipitation_Accumulation
0.00 0.00 0.02 0.10 0.38 0.68 0.72 0.47 0.39 0.31 0.31 0.26 0.28 0.27 0.32 0.44 0.60 0.67 0.28 0.09 0.02 0.01 0.02 0.07 0.12 0.12 0.10 0.09 0.10 0.13 0.13 0.14 0.13 0.12 0.12 0.11 0.08 0.05 0.04 0.03 0.02 0.03 0.03 0.03 0.03 0.04 0.03 0.04 0.04
0.00 0.00 0.02 0.11 0.32 0.61 0.54 0.41 0.33 0.24 0.26 0.31 0.44 0.43 0.33 0.38 0.40 0.32 0.20 0.12 0.04 0.02 0.02 0.02 0.08 0.11 0.10 0.10 0.10 0.12 0.12 0.11 0.10 0.09 0.09 0.09 0.07 0.04 0.03 0.03 0.03 0.04 0.04 0.04 0.04 0.04 0.04 0.03 0.03
0.00 0.01 0.04 0.11 0.21 0.30 0.28 0.18 0.18 0.24 0.33 0.43 0.48 0.48 0.43 0.40 0.33 0.26 0.19 0.12 0.10 0.05 0.03 0.04 0.07 0.08 0.10 0.11 0.11 0.11 0.10 0.10 0.09 0.08 0.08 0.07 0.06 0.04 0.04 0.04 0.04 0.06 0.07 0.07 0.05 0.05 0.05 0.04 0.04
0.01 0.03 0.08 0.11 0.06 0.06 0.07 0.10 0.17 0.29 0.49 0.72 0.71 0.56 0.44 0.32 0.24 0.19 0.22 0.16 0.13 0.09 0.05 0.05 0.08 0.08 0.09 0.10 0.10 0.10 0.10 0.10 0.10 0.09 0.08 0.07 0.06 0.06 0.05 0.05 0.06 0.08 0.10 0.11 0.11 0.10 0.08 0.05 0.05
0.01 0.03 0.06 0.06 0.03 0.03 0.05 0.11 0.22 0.36 0.52 0.71 0.74 0.64 0.55 0.40 0.28 0.24 0.19 0.16 0.15 0.11 0.05 0.06 0.11 0.11 0.11 0.12 0.13 0.12 0.11 0.10 0.10 0.09 0.10 0.10 0.08 0.08 0.08 0.07 0.08 0.08 0.10 0.11 0.12 0.12 0.10 0.07 0.05
0.00 0.02 0.03 0.02 0.02 0.03 0.06 0.13 0.23 0.35 0.51 0.67 0.91 0.92 0.69 0.49 0.46 0.38 0.25 0.18 0.17 0.14 0.07 0.08 0.14 0.16 0.16 0.16 0.17 0.16 0.14 0.12 0.12 0.12 0.12 0.12 0.10 0.11 0.12 0.12 0.12 0.11 0.12 0.13 0.13 0.14 0.13 0.11 0.08
0.00 0.01 0.01 0.01 0.02 0.04 0.06 0.13 0.23 0.37 0.51 0.78 1.05 1.06 0.73 0.52 0.49 0.48 0.40 0.28 0.25 0.19 0.12 0.10 0.12 0.14 0.16 0.20 0.22 0.21 0.18 0.16 0.15 0.15 0.15 0.13 0.12 0.14 0.16 0.18 0.19 0.19 0.19 0.18 0.19 0.19 0.19 0.17 0.14
0.00 0.00 0.00 0.00 0.01 0.04 0.10 0.15 0.27 0.46 0.63 0.85 1.02 1.09 0.98 0.60 0.47 0.54 0.59 0.53 0.52 0.36 0.20 0.17 0.16 0.18 0.18 0.19 0.22 0.22 0.20 0.19 0.19 0.19 0.19 0.19 0.23 0.27 0.32 0.32 0.30 0.30 0.31 0.33 0.35 0.35 0.37 0.36 0.30
0.00 0.00 0.00 0.00 0.01 0.09 0.13 0.17 0.24 0.33 0.51 0.72 0.86 0.91 0.77 0.58 0.58 0.71 0.82 0.69 0.61 0.54 0.35 0.32 0.30 0.22 0.24 0.25 0.26 0.33 0.34 0.35 0.38 0.43 0.40 0.37 0.39 0.53 0.66 0.60 0.60 0.61 0.63 0.68 0.74 0.75 0.77 0.72 0.56
0.00 0.00 0.00 0.00 0.00 0.05 0.11 0.16 0.24 0.31 0.67 1.18 1.19 0.85 0.63 0.73 0.83 0.89 0.89 0.80 0.68 0.65 0.50 0.43 0.42 0.37 0.37 0.39 0.58 0.74 0.71 0.80 0.76 0.87 0.80 0.79 0.82 0.71 0.59 0.72 0.86 0.98 1.16 1.24 1.32 1.38 1.35 1.20 0.96
0.00 0.00 0.00 0.00 0.01 0.01 0.04 0.10 0.18 0.36 0.80 1.41 1.57 1.18 0.98 1.01 1.20 1.09 1.02 0.98 0.95 0.86 0.80 0.55 0.55 0.51 0.57 0.66 0.85 0.99 1.03 1.09 1.05 1.10 1.14 1.23 1.22 1.03 0.91 1.08 1.33 1.47 1.62 1.69 1.94 1.99 1.62 1.57 1.58
0.00 0.00 0.00 0.00 0.01 0.01 0.08 0.15 0.23 0.29 0.71 1.05 1.02 0.90 1.01 1.15 1.26 1.33 1.27 1.30 1.16 1.08 1.09 0.95 0.95 0.88 0.87 0.91 0.94 0.99 0.95 0.98 1.06 1.16 1.26 1.40 1.38 1.38 1.36 1.41 1.50 1.65 1.85 2.06 2.15 2.16 2.03 2.14 2.13
0.00 0.00 0.00 0.01 0.03 0.04 0.09 0.13 0.22 0.35 0.48 0.61 0.57 0.73 1.12 1.31 1.46 1.64 1.71 1.76 1.70 1.62 1.57 1.47 1.43 1.26 1.09 0.95 0.88 0.82 0.80 0.78 0.87 0.95 1.01 1.10 1.31 1.45 1.46 1.32 1.32 1.36 1.59 1.91 2.21 2.25 2.46 2.56 2.38
0.00 0.00 0.01 0.03 0.03 0.05 0.07 0.09 0.19 0.38 0.44 0.56 0.71 0.88 1.21 1.56 1.79 1.98 2.41 2.61 2.74 2.49 2.19 2.04 1.88 1.52 1.33 1.15 0.97 0.86 0.75 0.75 0.77 0.77 0.84 0.99 1.12 1.28 1.25 1.23 1.29 1.33 1.35 1.49 1.88 2.12 2.33 2.26 2.04
0.00 0.02 0.05 0.06 0.04 0.05 0.06 0.16 0.34 0.48 0.68 0.71 0.88 1.08 1.37 1.81 2.17 2.56 2.88 3.38 3.70 3.54 2.90 2.35 2.07 1.80 1.54 1.36 1.15 0.97 0.82 0.75 0.74 0.69 0.74 0.82 0.88 0.98 1.02 1.03 1.02 1.08 1.10 1.14 1.28 1.49 1.66 1.60 1.49
0.01 0.08 0.17 0.10 0.06 0.07 0.10 0.41 0.61 0.52 0.82 1.15 1.07 1.34 1.70 2.07 2.39 2.94 3.48 4.07 4.51 4.43 3.64 2.79 2.24 2.17 1.99 1.71 1.25 0.96 0.80 0.66 0.57 0.53 0.53 0.55 0.57 0.59 0.62 0.63 0.61 0.64 0.64 0.68 0.79 0.90 1.00 1.09 1.17
0.03 0.07 0.15 0.17 0.11 0.10 0.18 0.58 0.74 0.53 0.66 0.96 1.19 1.42 1.82 2.09 2.26 2.73 3.25 3.94 4.43 4.75 4.32 3.39 3.06 2.89 2.24 1.55 1.03 0.77 0.62 0.48 0.41 0.42 0.38 0.38 0.40 0.41 0.45 0.45 0.43 0.41 0.40 0.41 0.43 0.53 0.63 0.72 0.80
0.02 0.04 0.09 0.21 0.16 0.17 0.25 0.44 0.70 0.71 0.87 1.09 1.23 1.37 1.62 1.72 1.83 2.24 2.67 3.01 3.45 3.75 3.45 3.00 2.83 2.33 1.60 1.04 0.71 0.48 0.39 0.31 0.27 0.28 0.28 0.29 0.31 0.33 0.37 0.36 0.34 0.31 0.29 0.31 0.36 0.41 0.44 0.44 0.48
0.02 0.04 0.08 0.15 0.16 0.23 0.35 0.47 0.65 0.81 1.02 1.18 1.20 1.18 1.20 1.30 1.52 1.71 1.94 2.19 2.26 2.22 2.10 1.98 1.79 1.47 0.98 0.68 0.43 0.29 0.23 0.19 0.17 0.18 0.17 0.20 0.23 0.29 0.35 0.30 0.33 0.30 0.25 0.25 0.27 0.31 0.31 0.29 0.29
0.03 0.06 0.11 0.14 0.14 0.19 0.34 0.60 0.73 0.81 0.83 0.91 0.99 0.96 0.93 1.00 1.08 1.11 1.23 1.49 1.43 1.41 1.41 1.34 1.21 0.93 0.60 0.44 0.32 0.26 0.20 0.13 0.10 0.09 0.10 0.10 0.12 0.17 0.24 0.31 0.25 0.26 0.26 0.26 0.25 0.27 0.25 0.22 0.25
0.04 0.05 0.06 0.10 0.11 0.19 0.34 0.83 0.90 0.76 0.67 0.60 0.71 0.75 0.69 0.70 0.68 0.64 0.72 0.83 1.02 1.25 1.14 0.96 0.89 0.70 0.48 0.34 0.26 0.21 0.18 0.15 0.12 0.09 0.08 0.08 0.07 0.09 0.14 0.21 0.24 0.27 0.25 0.28 0.33 0.30 0.27 0.21 0.19
0.04 0.03 0.02 0.02 0.07 0.30 0.42 0.85 0.91 0.74 0.72 0.54 0.51 0.52 0.42 0.34 0.37 0.43 0.45 0.50 0.67 0.82 0.82 0.78 0.74 0.64 0.43 0.31 0.21 0.16 0.14 0.12 0.10 0.08 0.07 0.07 0.06 0.07 0.08 0.10 0.15 0.22 0.26 0.34 0.26 0.29 0.30 0.26 0.19
0.01 0.01 0.01 0.03 0.10 0.27 0.39 0.71 0.90 0.69 0.74 0.51 0.33 0.22 0.15 0.12 0.16 0.25 0.30 0.35 0.39 0.44 0.55 0.62 0.72 0.70 0.48 0.34 0.23 0.19 0.15 0.12 0.09 0.08 0.09 0.09 0.10 0.11 0.12 0.12 0.11 0.12 0.19 0.26 0.29 0.35 0.32 0.32 0.27
0.01 0.02 0.08 0.17 0.29 0.60 0.58 0.57 0.84 0.59 0.40 0.22 0.14 0.08 0.06 0.06 0.09 0.15 0.19 0.23 0.29 0.33 0.37 0.44 0.56 0.63 0.50 0.37 0.28 0.26 0.24 0.20 0.17 0.14 0.14 0.15 0.18 0.20 0.19 0.20 0.20 0.20 0.18 0.17 0.19 0.24 0.30 0.35 0.36
0.02 0.03 0.16 0.37 0.61 0.79 0.45 0.57 0.90 0.44 0.23 0.11 0.07 0.05 0.04 0.04 0.05 0.08 0.11 0.13 0.20 0.24 0.24 0.25 0.35 0.42 0.36 0.29 0.26 0.26 0.33 0.37 0.36 0.30 0.25 0.22 0.21 0.23 0.23 0.23 0.24 0.27 0.28 0.25 0.20 0.16 0.20 0.28 0.33
0.02 0.02 0.06 0.11 0.20 0.33 0.37 0.96 0.80 0.23 0.12 0.07 0.04 0.03 0.03 0.03 0.02 0.03 0.05 0.09 0.13 0.15 0.17 0.18 0.25 0.29 0.25 0.20 0.20 0.18 0.20 0.24 0.31 0.37 0.33 0.32 0.33 0.28 0.23 0.22 0.22 0.26 0.30 0.31 0.28 0.22 0.20 0.22 0.26
0.02 0.02 0.03 0.04 0.05 0.21 0.49 0.69 0.39 0.10 0.06 0.05 0.03 0.03 0.02 0.02 0.01 0.01 0.02 0.05 0.07 0.07 0.11 0.12 0.18 0.22 0.19 0.16 0.14 0.11 0.10 0.10 0.13 0.16 0.17 0.22 0.32 0.32 0.24 0.20 0.19 0.22 0.25 0.30 0.31 0.30 0.29 0.27 0.24
0.03 0.02 0.02 0.02 0.05 0.15 0.36 0.58 0.54 0.20 0.09 0.06 0.04 0.02 0.02 0.01 0.01 0.01 0.01 0.03 0.05 0.06 0.09 0.12 0.15 0.16 0.15 0.14 0.11 0.08 0.10 0.09 0.10 0.09 0.07 0.08 0.12 0.16 0.16 0.16 0.16 0.17 0.19 0.23 0.29 0.34 0.40 0.42 0.38
0.04 0.03 0.03 0.03 0.04 0.08 0.23 0.35 0.35 0.19 0.11 0.07 0.04 0.03 0.05 0.04 0.02 0.02 0.02 0.03 0.03 0.05 0.08 0.10 0.13 0.13 0.10 0.10 0.11 0.09 0.09 0.08 0.09 0.08 0.06 0.06 0.06 0.06 0.06 0.08 0.10 0.11 0.12 0.16 0.21 0.27 0.38 0.52 0.59
0.05 0.06 0.05 0.05 0.05 0.06 0.09 0.15 0.14 0.12 0.12 0.11 0.07 0.04 0.05 0.05 0.03 0.03 0.03 0.03 0.03 0.06 0.09 0.10 0.11 0.11 0.09 0.10 0.12 0.11 0.12 0.12 0.11 0.10 0.08 0.09 0.08 0.07 0.07 0.08 0.09 0.08 0.07 0.09 0.13 0.19 0.26 0.37 0.53